Weather History for Pineville, WV

Change the Weather History Date:

Tuesday, August 20, 2013

  Actual Average (KBKW) Record (KBKW)
Temperature  
Mean Temperature 74 °F 70 °F  
Max Temperature 86 °F 79 °F 94 °F (1936)
Min Temperature 63 °F 60 °F 33 °F (1940)
Degree Days  
Heating Degree Days 0 0  
Month to date heating degree days 0  
Since 1 June heating degree days 47  
Since 1 July heating degree days 8  
Cooling Degree Days 10 5  
Month to date cooling degree days 113  
Year to date cooling degree days 446  
Since 1 June cooling degree days 405  
Growing Degree Days 24 (Base 50)    
Moisture  
Dew Point 69 °F    
Average Humidity 90    
Maximum Humidity 100    
Minimum Humidity 59    
Precipitation  
Precipitation 0.00 in 0.10 in 2.49 in (1947)
Month to date precipitation 2.45  
Year to date precipitation 28.64  
Snow  
Snow 0.00 in - - ()
Month to date snowfall  
Since 1 September snowfall  
Snow Depth -    
Sea Level Pressure  
Sea Level Pressure 30.24 in    
Wind  
Wind Speed - (North)    
Max Wind Speed -    
Max Gust Speed -    
Visibility 6 miles    
Events Fog , Rain    
T = Trace of Precipitation, MM = Missing Value Source: NWS Daily Summary

Daily Weather History Graph

Daily Weather History Graph

Search for Another Location

Airport:

Trip Planner

Search our weather history database for the weather conditions in past years. The results will help you decide how hot, cold, wet, or windy it might be!

Date:

Astronomy

Aug. 20, 2013 Rise Set
Actual Time 6:46 AM EDT 8:11 PM EDT
Civil Twilight 6:19 AM EDT 8:39 PM EDT
Nautical Twilight 5:45 AM EDT 9:12 PM EDT
Astronomical Twilight 5:11 AM EDT 9:46 PM EDT
Moon 7:43 PM EDT (8/20) 6:14 AM EDT (8/20)
Length of Visible Light 14h 20m
Length of Day
13h 25m
Full, 100% of the Moon is Illuminated
Aug 20
Full
Aug 20
Full
Aug 28
Last Quarter
Sep 5
New
Sep 12
First Quarter

Hourly Weather History & Observations

Time (EDT) Temp. Heat Index Dew Point Humidity Pressure Visibility Wind Dir Wind Speed Gust Speed Precip Events Conditions
12:15 AM 68.9 °F - 68.9 °F 100% 30.23 in 0.2 mi North - - N/A Fog Fog
12:35 AM 68.2 °F - 68.2 °F 100% 30.23 in 0.5 mi North - - N/A Fog Fog
12:55 AM 68.2 °F - 68.2 °F 100% 30.23 in 0.5 mi North - - N/A Fog Fog
1:15 AM 68.0 °F - 68.0 °F 100% 30.23 in 0.2 mi North - - N/A Fog Fog
1:35 AM 67.6 °F - 67.6 °F 100% 30.23 in 0.2 mi North - - N/A Fog Fog
1:55 AM 67.5 °F - 67.5 °F 100% 30.23 in 0.2 mi North - - N/A Fog Fog
2:15 AM 67.1 °F - 67.1 °F 100% 30.22 in 0.5 mi North - - N/A Fog Fog
2:35 AM 66.6 °F - 66.6 °F 100% 30.22 in 0.5 mi North - - N/A Fog Fog
2:55 AM 66.2 °F - 66.2 °F 100% 30.22 in 1.0 mi North - - N/A   Overcast
3:15 AM 66.2 °F - 66.2 °F 100% 30.22 in 1.2 mi North - - N/A   Overcast
3:35 AM 66.0 °F - 66.0 °F 100% 30.22 in 0.5 mi North - - N/A Fog Fog
3:55 AM 65.7 °F - 65.7 °F 100% 30.22 in 1.0 mi North - - N/A   Overcast
4:15 AM 65.3 °F - 65.3 °F 100% 30.22 in 0.5 mi North - - N/A Fog Fog
4:35 AM 65.3 °F - 65.3 °F 100% 30.22 in 0.5 mi North - - N/A Fog Fog
4:55 AM 65.5 °F - 65.5 °F 100% 30.22 in 0.5 mi North - - N/A Fog Fog
5:15 AM 65.3 °F - 65.3 °F 100% 30.22 in 0.2 mi North - - N/A Fog Fog
5:35 AM 64.6 °F - 64.6 °F 100% 30.22 in 0.5 mi North - - N/A Fog Fog
5:55 AM 63.9 °F - 63.9 °F 100% 30.22 in 0.5 mi North - - N/A Fog Fog
6:15 AM 63.5 °F - 63.5 °F 100% 30.23 in 0.8 mi North - - N/A   Overcast
6:35 AM 63.5 °F - 63.5 °F 100% 30.23 in 4.0 mi North - - N/A   Overcast
6:55 AM 63.7 °F - 63.7 °F 100% 30.24 in 2.0 mi North - - N/A   Overcast
7:15 AM 64.4 °F - 64.4 °F 100% 30.25 in 0.2 mi North - - N/A Fog Fog
7:35 AM 64.8 °F - 64.8 °F 100% 30.25 in 0.2 mi North - - N/A Fog Fog
7:55 AM 64.6 °F - 64.6 °F 100% 30.25 in 0.2 mi North - - N/A Fog Fog
8:15 AM 64.4 °F - 64.4 °F 100% 30.25 in 0.5 mi North - - N/A Fog Fog
8:35 AM 65.3 °F - 65.3 °F 100% 30.26 in 7.0 mi North - - N/A   Overcast
8:55 AM 66.2 °F - 66.2 °F 100% 30.26 in 5.0 mi North - - N/A   Overcast
9:15 AM 66.7 °F - 66.7 °F 100% 30.27 in 7.0 mi North - - N/A   Overcast
9:35 AM 67.5 °F - 67.5 °F 100% 30.27 in 7.0 mi North - - N/A   Overcast
9:55 AM 69.8 °F - 69.6 °F 99% 30.28 in 10.0 mi North - - N/A   Scattered Clouds
10:15 AM 72.0 °F - 70.2 °F 94% 30.28 in 10.0 mi North - - N/A   Scattered Clouds
10:35 AM 73.0 °F - 70.2 °F 91% 30.29 in 10.0 mi North - - N/A   Scattered Clouds
10:55 AM 76.1 °F - 70.7 °F 83% 30.29 in 10.0 mi North - - N/A   Clear
11:15 AM 77.4 °F - 70.7 °F 80% 30.29 in 10.0 mi North - - N/A   Clear
11:35 AM 77.0 °F - 69.1 °F 76% 30.29 in 10.0 mi North - - N/A   Scattered Clouds
11:55 AM 79.7 °F - 70.5 °F 73% 30.29 in 10.0 mi North - - N/A   Overcast
12:15 PM 81.1 °F 84.5 °F 69.8 °F 68% 30.29 in 10.0 mi North - - N/A   Overcast
12:35 PM 82.0 °F 85.3 °F 68.9 °F 64% 30.29 in 10.0 mi North - - N/A   Overcast
12:55 PM 80.4 °F 83.5 °F 69.4 °F 69% 30.28 in 10.0 mi North - - N/A   Mostly Cloudy
1:15 PM 78.8 °F - 70.9 °F 77% 30.28 in 10.0 mi North - - N/A   Mostly Cloudy
1:35 PM 82.4 °F 85.0 °F 67.3 °F 60% 30.28 in 10.0 mi North - - N/A   Mostly Cloudy
1:55 PM 83.5 °F 87.7 °F 70.3 °F 64% 30.27 in 10.0 mi North - - N/A   Mostly Cloudy
2:15 PM 81.3 °F 85.2 °F 70.9 °F 70% 30.26 in 10.0 mi North - - N/A   Scattered Clouds
2:35 PM 82.8 °F 87.2 °F 70.7 °F 67% 30.25 in 10.0 mi North - - N/A   Clear
2:55 PM 84.6 °F 88.2 °F 68.9 °F 59% 30.25 in 10.0 mi North - - N/A   Scattered Clouds
3:15 PM 82.9 °F 87.2 °F 70.5 °F 66% 30.24 in 10.0 mi North - - N/A   Overcast
3:35 PM 78.8 °F - 72.7 °F 81% 30.23 in 10.0 mi North - - N/A   Mostly Cloudy
3:55 PM 80.2 °F 84.3 °F 72.5 °F 77% 30.23 in 10.0 mi North - - N/A   Scattered Clouds
4:15 PM 85.1 °F 91.8 °F 73.0 °F 67% 30.22 in 10.0 mi North - - N/A   Clear
4:35 PM 85.3 °F 90.8 °F 71.4 °F 63% 30.22 in 10.0 mi North - - N/A   Mostly Cloudy
4:55 PM 86.0 °F 90.7 °F 70.2 °F 59% 30.21 in 10.0 mi North - - N/A   Mostly Cloudy
5:15 PM 83.7 °F 89.7 °F 72.9 °F 70% 30.21 in 10.0 mi North - - N/A   Mostly Cloudy
5:35 PM 82.2 °F 88.3 °F 74.1 °F 76% 30.21 in 10.0 mi North - - N/A   Scattered Clouds
5:55 PM 80.8 °F 85.9 °F 73.9 °F 80% 30.21 in 10.0 mi North - - N/A   Scattered Clouds
6:15 PM 79.0 °F - 73.2 °F 82% 30.20 in 10.0 mi North - - N/A   Clear
6:35 PM 77.7 °F - 73.2 °F 86% 30.20 in 10.0 mi North - - N/A   Clear
6:55 PM 76.6 °F - 72.7 °F 87% 30.21 in 10.0 mi North - - N/A   Clear
7:15 PM 75.4 °F - 72.3 °F 90% 30.21 in 10.0 mi North - - N/A   Scattered Clouds
7:35 PM 74.5 °F - 72.5 °F 94% 30.22 in 10.0 mi North - - N/A   Scattered Clouds
7:55 PM 73.8 °F - 72.7 °F 96% 30.22 in 7.0 mi North - - N/A   Clear
8:15 PM 73.2 °F - 72.5 °F 98% 30.23 in 7.0 mi North - - N/A   Scattered Clouds
8:35 PM 72.7 °F - 72.1 °F 98% 30.23 in 7.0 mi North - - N/A   Mostly Cloudy
8:55 PM 73.4 °F - 72.5 °F 97% 30.24 in 7.0 mi North - - N/A Rain Rain
9:15 PM 72.9 °F - 72.1 °F 98% 30.24 in 7.0 mi North - - N/A   Overcast
9:35 PM 71.8 °F - 71.6 °F 99% 30.24 in 5.0 mi North - - N/A   Scattered Clouds
9:55 PM 71.1 °F - 70.9 °F 99% 30.25 in 7.0 mi North - - N/A   Scattered Clouds
10:15 PM 70.7 °F - 70.7 °F 100% 30.25 in 7.0 mi North - - N/A   Clear
10:35 PM 70.2 °F - 70.2 °F 100% 30.26 in 7.0 mi North - - N/A   Clear
10:55 PM 70.0 °F - 70.0 °F 100% 30.26 in 7.0 mi North - - N/A   Clear
11:15 PM 69.8 °F - 69.8 °F 100% 30.25 in 7.0 mi North - - N/A   Clear
11:35 PM 69.8 °F - 69.8 °F 100% 30.25 in 5.0 mi North - - N/A   Clear
11:55 PM 69.4 °F - 69.4 °F 100% 30.25 in 5.0 mi North - - N/A   Clear